Weather History for Wooster, OH

Change the Weather History Date:

Tuesday, February 19, 2013

  Actual Average Record
Temperature  
Mean Temperature 29 °F -  
Max Temperature 43 °F 36 °F 51 °F (1997)
Min Temperature 15 °F 22 °F -7 °F (2007)
Degree Days  
Heating Degree Days 36    
Moisture  
Dew Point 22 °F    
Average Humidity 81    
Maximum Humidity 93    
Minimum Humidity 71    
Precipitation  
Precipitation 0.19 in - - ()
Sea Level Pressure  
Sea Level Pressure 29.80 in    
Wind  
Wind Speed 20 mph (WSW)    
Max Wind Speed 28 mph    
Max Gust Speed 43 mph    
Visibility 5 miles    
Events Fog , Rain , Snow    
Averages and records for this station are not official NWS values.
T = Trace of Precipitation, MM = Missing Value Source: NWS Daily Summary

Daily Weather History Graph

Daily Weather History Graph

Search for Another Location

Airport:

Trip Planner

Search our weather history database for the weather conditions in past years. The results will help you decide how hot, cold, wet, or windy it might be!

Date:

Astronomy

Feb. 19, 2013 Rise Set
Actual Time 7:15 AM EST 6:07 PM EST
Civil Twilight 6:48 AM EST 6:35 PM EST
Nautical Twilight 6:16 AM EST 7:07 PM EST
Astronomical Twilight 5:44 AM EST 7:39 PM EST
Moon 12:36 PM EST (2/19) 2:48 AM EST (2/19)
Length of Visible Light 11h 47m
Length of Day
10h 51m
Waxing Gibbous, 67% of the Moon is Illuminated
Feb 19
Waxing Gibbous
Feb 25
Full
Mar 4
Last Quarter
Mar 11
New
Mar 19
First Quarter

Hourly Weather History & Observations

Time (EST) Temp. Windchill Dew Point Humidity Pressure Visibility Wind Dir Wind Speed Gust Speed Precip Events Conditions
12:56 AM 43.0 °F 33.5 °F 34.0 °F 71% 29.78 in 10.0 mi SSW 24.2 mph 42.6 mph 0.00 in Rain Light Rain
1:56 AM 41.0 °F 31.4 °F 35.1 °F 79% 29.75 in 6.0 mi SSW 21.9 mph 36.8 mph 0.03 in Rain Light Rain
2:56 AM 39.9 °F 30.5 °F 36.0 °F 86% 29.71 in 10.0 mi South 19.6 mph 26.5 mph 0.04 in Rain Light Rain
3:56 AM 39.0 °F 29.9 °F 35.1 °F 86% 29.67 in 10.0 mi South 17.3 mph 26.5 mph 0.00 in Rain Light Rain
4:28 AM 39.2 °F 29.8 °F 35.6 °F 87% 29.64 in 7.0 mi South 18.4 mph 29.9 mph 0.02 in Rain Light Rain
4:56 AM 39.0 °F 29.6 °F 36.0 °F 89% 29.65 in 8.0 mi South 18.4 mph 26.5 mph 0.03 in Rain Light Rain
5:23 AM 39.2 °F 29.8 °F 35.6 °F 87% 29.62 in 10.0 mi South 18.4 mph 28.8 mph 0.01 in   Overcast
5:56 AM 39.0 °F 29.6 °F 36.0 °F 89% 29.64 in 7.0 mi SSW 18.4 mph 27.6 mph 0.01 in Rain Light Rain
6:56 AM 39.9 °F 30.5 °F 36.0 °F 86% 29.63 in 10.0 mi SSW 19.6 mph 27.6 mph 0.01 in   Overcast
7:41 AM 39.2 °F 30.8 °F 37.4 °F 93% 29.63 in 4.0 mi West 15.0 mph 25.3 mph 0.03 in Rain Rain
7:47 AM 35.6 °F 24.2 °F 32.0 °F 87% 29.63 in 3.0 mi WNW 21.9 mph - 0.04 in Rain Rain
7:56 AM 34.0 °F 23.8 °F 32.0 °F 92% 29.67 in 3.0 mi West 16.1 mph - 0.05 in Snow Light Snow
8:06 AM 33.8 °F 23.2 °F 32.0 °F 93% 29.65 in 6.0 mi West 17.3 mph 25.3 mph 0.00 in Rain Light Rain
8:22 AM 33.8 °F 23.5 °F 30.2 °F 87% 29.65 in 1.8 mi West 16.1 mph 24.2 mph 0.00 in Snow Light Snow
8:33 AM 33.8 °F 23.9 °F 30.2 °F 87% 29.65 in 1.0 mi West 15.0 mph - 0.01 in Snow Light Snow
8:38 AM 33.8 °F 24.3 °F 30.2 °F 87% 29.66 in 0.5 mi West 13.8 mph - 0.02 in Fog , Snow Snow
8:52 AM 33.8 °F 24.8 °F 30.2 °F 87% 29.66 in 1.2 mi WSW 12.7 mph - 0.02 in Snow Light Snow
8:56 AM 33.1 °F 22.6 °F 30.9 °F 92% 29.69 in 2.5 mi WSW 16.1 mph - 0.02 in Snow Light Snow
9:00 AM 33.8 °F 24.3 °F 30.2 °F 87% 29.66 in 6.0 mi WSW 13.8 mph - 0.00 in Snow Light Snow
10:56 AM 30.0 °F 16.9 °F 24.1 °F 79% 29.74 in 10.0 mi West 21.9 mph 36.8 mph N/A   Overcast
11:54 AM 28.4 °F 14.7 °F 24.8 °F 86% 29.73 in 8.0 mi West 21.9 mph 34.5 mph N/A   Overcast
11:56 AM 28.0 °F 14.6 °F 23.0 °F 81% 29.76 in 8.0 mi West 20.7 mph 28.8 mph N/A   Overcast
12:39 PM 28.4 °F 15.1 °F 21.2 °F 74% 29.73 in 6.0 mi West 20.7 mph 28.8 mph 0.00 in   Overcast
12:56 PM 28.0 °F 13.9 °F 21.9 °F 78% 29.75 in 6.0 mi West 23.0 mph 31.1 mph 0.00 in Snow Light Snow
1:56 PM 28.0 °F 12.8 °F 19.9 °F 72% 29.77 in 10.0 mi West 27.6 mph 36.8 mph 0.00 in   Overcast
2:30 PM 26.6 °F 12.0 °F 19.4 °F 74% 29.75 in 10.0 mi West 23.0 mph 34.5 mph N/A   Overcast
2:56 PM 28.0 °F 13.6 °F 19.9 °F 72% 29.78 in 10.0 mi West 24.2 mph 29.9 mph N/A   Overcast
3:48 PM 26.6 °F 12.7 °F 21.2 °F 80% 29.78 in 2.5 mi West 20.7 mph 26.5 mph 0.00 in Snow Light Snow
3:56 PM 26.1 °F 12.0 °F 21.0 °F 81% 29.81 in 1.5 mi West 20.7 mph 28.8 mph 0.00 in Snow Light Snow
4:20 PM 24.8 °F 8.4 °F 19.4 °F 80% 29.80 in 3.0 mi West 27.6 mph 35.7 mph 0.00 in Snow Light Snow
4:28 PM 24.8 °F 9.0 °F 17.6 °F 74% 29.81 in 8.0 mi West 25.3 mph 35.7 mph 0.00 in Snow Light Snow
4:56 PM 25.0 °F 9.2 °F 17.1 °F 72% 29.85 in 9.0 mi West 25.3 mph 33.4 mph 0.00 in   Overcast
5:31 PM 24.8 °F 9.6 °F 17.6 °F 74% 29.83 in 2.5 mi West 23.0 mph - 0.00 in Snow Light Snow
5:40 PM 24.8 °F 12.4 °F 19.4 °F 80% 29.84 in 1.8 mi West 15.0 mph - 0.00 in Snow Light Snow
5:48 PM 24.8 °F 11.5 °F 19.4 °F 80% 29.85 in 2.5 mi West 17.3 mph 24.2 mph 0.00 in Snow Light Snow
5:56 PM 24.1 °F 11.5 °F 19.0 °F 81% 29.88 in 1.2 mi West 15.0 mph 24.2 mph 0.00 in Snow Light Snow
6:19 PM 24.8 °F 9.3 °F 17.6 °F 74% 29.86 in 3.0 mi West 24.2 mph 32.2 mph 0.00 in Snow Light Snow
7:56 PM 21.0 °F 6.6 °F 14.0 °F 74% 29.96 in 10.0 mi West 17.3 mph - 0.00 in   Overcast
8:25 PM 21.2 °F 7.3 °F 15.8 °F 80% 29.92 in 2.5 mi West 16.1 mph 27.6 mph 0.00 in Snow Light Snow
8:40 PM 19.4 °F 5.0 °F 15.8 °F 86% 29.92 in 1.5 mi West 16.1 mph 21.9 mph 0.00 in Snow Light Snow
8:49 PM 19.4 °F 2.8 °F 15.8 °F 86% 29.93 in 0.8 mi West 21.9 mph 32.2 mph 0.00 in Snow Light Snow
8:59 PM 19.4 °F 2.8 °F 15.8 °F 86% 29.93 in 0.8 mi West 21.9 mph 28.8 mph 0.00 in Snow Light Snow
9:01 PM 19.4 °F 1.4 °F 14.0 °F 80% 29.93 in 1.2 mi West 26.5 mph 34.5 mph 0.00 in Snow Light Snow
9:04 PM 19.4 °F 2.5 °F 12.2 °F 74% 29.94 in 4.0 mi West 23.0 mph 34.5 mph 0.00 in Snow Light Snow
9:20 PM 19.4 °F 2.8 °F 12.2 °F 74% 29.94 in 7.0 mi West 21.9 mph 35.7 mph 0.00 in Snow Light Snow
9:45 PM 19.4 °F 5.0 °F 12.2 °F 74% 29.94 in 6.0 mi West 16.1 mph 24.2 mph 0.00 in Snow Light Snow
9:56 PM 18.0 °F 2.6 °F 12.9 °F 81% 29.99 in 2.0 mi West 17.3 mph 26.5 mph 0.00 in Snow Light Snow
10:07 PM 17.6 °F 0.9 °F 10.4 °F 73% 29.95 in 5.0 mi West 20.7 mph 28.8 mph 0.00 in Snow Light Snow
10:43 PM 17.6 °F 0.9 °F 10.4 °F 73% 29.97 in 2.5 mi West 20.7 mph 26.5 mph 0.00 in Snow Light Snow
10:56 PM 17.1 °F 3.6 °F 10.9 °F 77% 30.01 in 2.5 mi West 12.7 mph 26.5 mph 0.00 in Snow Light Snow
11:31 PM 15.8 °F 0.9 °F 12.2 °F 86% 29.97 in 1.0 mi WNW 15.0 mph - 0.00 in Snow Light Snow
11:43 PM 15.8 °F 0.9 °F 10.4 °F 79% 29.97 in 1.0 mi West 15.0 mph 25.3 mph 0.00 in Snow Light Snow
11:49 PM 15.8 °F -1.9 °F 10.4 °F 79% 29.97 in 2.0 mi West 21.9 mph 29.9 mph 0.00 in Snow Light Snow
11:56 PM 16.0 °F -0.9 °F 9.0 °F 74% 30.03 in 6.0 mi West 19.6 mph 29.9 mph 0.00 in Snow Light Snow